[[{"header":{"parameterUnit":"m.s-1","parameterCategory":1,"la1":30.2991,"la2":30.254,"lo1":-89.0895,"lo2":-89.0444,"dy":0.0017,"dx":0.0017,"nx":28,"ny":28,"refTime":"2023-08-03T03:00:00:Z","depth":0,"parameterNumber":2,"parameterNumberName":"U-component_of_WINDS"},"data":[0,0,0,0,0,0,0,0,0,0,0,0,0,0,0,0,0,0,0,0,0,0,0,0,0,0,0,0,0,0,0,0,0,0,0,0,0,0,0,0,0,0,0,0,0,0,0,0,0,0,0,0,0,0,0,0,0,0,-0.0966,-0.0966,0,-0.0965,-0.0965,-0.0965,-0.0972,-0.0972,-0.0972,-0.0973,-0.0969,-0.0968,-0.0968,0,0,0,0,0,0,0,0,0,0,0,0,0,-0.0972,-0.0972,-0.0966,-0.0966,-0.0966,-0.0965,-0.0965,-0.0965,-0.0972,-0.0972,-0.0972,-0.0973,-0.0969,-0.0968,-0.0968,0,0,0,0,0,0,0,0,0,0,0,0,0,-0.097,-0.0972,-0.0966,-0.0969,-0.097,-0.0965,-0.0965,-0.0965,-0.0972,-0.0972,-0.0972,-0.0973,-0.0969,-0.0968,-0.0968,-0.0959,0,0,-0.0967,-0.0966,0,0,0,0,0,0,0,0,-0.097,-0.097,-0.0969,-0.0969,-0.0969,-0.0969,-0.0966,-0.0963,-0.0972,-0.0971,-0.0973,-0.0973,-0.0968,-0.0968,-0.0967,-0.0959,-0.0959,-0.0967,-0.0966,-0.0966,-0.0966,0,0,0,0,0,0,0,-0.097,-0.097,-0.0965,-0.0969,-0.0969,-0.097,-0.0971,-0.0965,-0.0968,-0.0971,-0.0972,-0.0971,-0.0968,-0.0967,-0.0967,-0.0959,-0.0967,-0.0966,-0.0966,-0.0966,-0.0946,-0.0945,0,0,0,0,0,0,-0.097,-0.097,-0.0965,-0.0965,-0.0971,-0.097,-0.097,-0.0969,-0.0968,-0.0968,-0.0971,-0.0972,-0.0968,-0.0967,-0.0967,-0.0958,-0.0966,-0.0966,-0.0965,-0.0946,-0.0946,-0.0945,0,0,0,0,0,0,-0.0971,-0.097,-0.0965,-0.0968,-0.0967,-0.097,-0.0968,-0.0968,-0.0967,-0.0968,-0.0968,-0.097,-0.0968,-0.0967,-0.0962,-0.0958,-0.0965,-0.0965,-0.0946,-0.0946,-0.0945,-0.0939,0,0,0,0,0,0,-0.0971,-0.097,-0.0967,-0.0968,-0.0967,-0.0961,-0.0968,-0.0968,-0.0967,-0.0968,-0.0967,-0.0967,-0.0968,-0.0962,-0.0961,-0.0957,-0.0965,-0.0946,-0.0946,-0.0945,-0.0939,-0.0938,-0.0937,0,0,0,0,0,-0.0971,-0.0964,-0.0966,-0.0966,-0.0963,-0.096,-0.096,-0.0963,-0.0967,-0.0963,-0.0964,-0.0967,-0.0958,-0.0962,-0.096,-0.0956,-0.0947,-0.0946,-0.0946,-0.094,-0.0938,-0.0937,0,0,0,0,0,0,-0.096,-0.0964,-0.0967,-0.096,-0.096,-0.0962,-0.0957,-0.0961,-0.0959,-0.096,-0.0962,-0.0962,-0.0956,-0.0955,-0.0959,-0.0949,-0.0953,-0.0952,-0.0949,-0.0948,-0.0947,-0.0947,-0.0964,0,0,0,0,0,-0.0958,-0.0955,-0.0958,-0.0952,-0.0952,-0.0955,-0.0953,-0.0956,-0.0956,-0.0955,-0.0956,-0.0955,-0.0952,-0.095,-0.0947,-0.094,-0.094,-0.0936,-0.0935,-0.0934,-0.0933,-0.0931,-0.093,-0.0943,-0.0943,-0.0943,0,0,-0.0951,-0.0953,-0.0951,-0.095,-0.095,-0.0948,-0.0955,-0.0951,-0.095,-0.0954,-0.095,-0.095,-0.0949,-0.0943,-0.094,-0.0942,-0.093,-0.0934,-0.0933,-0.0932,-0.093,-0.0929,-0.0928,-0.0943,-0.0943,-0.0943,0,0,-0.0938,-0.0939,-0.0935,-0.0936,-0.0937,-0.0939,-0.0938,-0.094,-0.0941,-0.0936,-0.0941,-0.0938,-0.0933,-0.0933,-0.0932,-0.0922,-0.0925,-0.0921,-0.0916,-0.0913,-0.0912,-0.0911,-0.0909,-0.0908,-0.092,-0.092,-0.092,0,-0.093,-0.0927,-0.0932,-0.0929,-0.0929,-0.0935,-0.0931,-0.0931,-0.0931,-0.0931,-0.0934,-0.0929,-0.0929,-0.0923,-0.0921,-0.092,-0.092,-0.0921,-0.0912,-0.0911,-0.091,-0.0908,-0.0907,-0.092,-0.092,-0.092,-0.092,0,-0.0917,-0.0916,-0.0912,-0.0914,-0.0913,-0.0909,-0.0914,-0.0912,-0.0916,-0.0918,-0.0914,-0.0914,-0.0913,-0.0912,-0.0914,-0.0907,-0.0909,-0.0912,-0.0916,-0.0909,-0.0907,-0.0906,-0.092,-0.092,-0.092,-0.092,0,0,-0.0897,-0.0903,-0.0901,-0.0903,-0.0906,-0.0904,-0.0901,-0.0901,-0.0901,-0.0901,-0.0899,-0.0896,-0.09,-0.0899,-0.0901,-0.0899,-0.0893,-0.0902,-0.0903,-0.0901,-0.0887,-0.0885,-0.0884,-0.0895,-0.0895,-0.0895,-0.0887,0,-0.0885,-0.0882,-0.0887,-0.0882,-0.0881,-0.0888,-0.0886,-0.0887,-0.089,-0.0889,-0.0891,-0.089,-0.0894,-0.0894,-0.0892,-0.0894,-0.089,-0.0894,-0.0893,-0.0893,-0.0894,-0.0883,-0.088,-0.0873,-0.0887,-0.0886,-0.0886,0,-0.0871,-0.0873,-0.0868,-0.0873,-0.0873,-0.0871,-0.0872,-0.0872,-0.0874,-0.0876,-0.0876,-0.088,-0.0878,-0.0883,-0.088,-0.0883,-0.0883,-0.0884,-0.0884,-0.0884,-0.0889,-0.0883,-0.0871,-0.087,-0.0885,-0.0885,-0.0885,0,-0.0858,-0.0859,-0.0857,-0.0857,-0.0863,-0.0862,-0.0864,-0.0866,-0.0867,-0.0868,-0.0868,-0.0868,-0.0869,-0.0869,-0.0873,-0.0876,-0.087,-0.0875,-0.0872,-0.0872,-0.087,-0.087,-0.0859,-0.087,-0.087,-0.087,-0.087,0,-0.0845,-0.0842,-0.0851,-0.085,-0.0847,-0.0853,-0.0851,-0.0853,-0.0856,-0.0855,-0.0861,-0.086,-0.0865,-0.0865,-0.0868,-0.0866,-0.0866,-0.0868,-0.0869,-0.0867,-0.0867,-0.0867,-0.0868,-0.0869,-0.087,-0.087,-0.087,0,-0.0829,-0.0835,-0.0834,-0.084,-0.0841,-0.0839,-0.0844,-0.0843,-0.0847,-0.0846,-0.0847,-0.0852,-0.0852,-0.0857,-0.0857,-0.0859,-0.0857,-0.0858,-0.0856,-0.0857,-0.0854,-0.0854,-0.0842,-0.0841,-0.0852,-0.0852,-0.0852,0,-0.0821,-0.0819,-0.0826,-0.0827,-0.0829,-0.0829,-0.0831,-0.0837,-0.0838,-0.0841,-0.084,-0.0841,-0.0843,-0.0843,-0.0847,-0.0848,-0.085,-0.0845,-0.085,-0.0849,-0.0851,-0.0851,-0.0851,-0.0844,-0.0844,-0.0844,-0.0844,0,-0.0805,-0.0809,-0.0811,-0.0814,-0.0815,-0.0818,-0.082,-0.0821,-0.0828,-0.0828,-0.083,-0.0831,-0.0833,-0.0834,-0.0837,-0.0838,-0.0843,-0.0843,-0.0842,-0.0841,-0.084,-0.0842,-0.0854,-0.0843,-0.0843,-0.0843,-0.0843,-0.0843,-0.0794,-0.0793,-0.0799,-0.0801,-0.0804,-0.0807,-0.0807,-0.0811,-0.0813,-0.0816,-0.0819,-0.0821,-0.0824,-0.0828,-0.083,-0.0831,-0.0833,-0.0832,-0.0832,-0.0832,-0.0831,-0.0841,-0.0831,-0.0831,-0.0831,-0.0831,-0.0831,0,-0.078,-0.0784,-0.0786,-0.079,-0.0792,-0.0797,-0.0801,-0.0802,-0.0804,-0.0807,-0.0809,-0.0811,-0.0813,-0.0818,-0.082,-0.082,-0.0822,-0.0821,-0.0821,-0.0821,-0.0829,-0.0829,-0.0819,-0.0819,-0.0819,-0.0819,-0.0819,-0.0819,-0.0772,-0.0772,-0.0777,-0.0779,-0.0783,-0.0785,-0.0787,-0.079,-0.0793,-0.0796,-0.0798,-0.0801,-0.0806,-0.0809,-0.0811,-0.0812,-0.0813,-0.0811,-0.0813,-0.082,-0.0821,-0.0822,-0.0822,-0.0811,-0.0811,-0.0806,-0.0806,-0.0806]},{"header":{"parameterUnit":"m.s-1","parameterCategory":1,"la1":30.2991,"la2":30.254,"lo1":-89.0895,"lo2":-89.0444,"dy":0.0017,"dx":0.0017,"nx":28,"ny":28,"refTime":"2023-08-03T03:00:00:Z","depth":0,"parameterNumber":3,"parameterNumberName":"V-component_of_WINDS"},"data":[0,0,0,0,0,0,0,0,0,0,0,0,0,0,0,0,0,0,0,0,0,0,0,0,0,0,0,0,0,0,0,0,0,0,0,0,0,0,0,0,0,0,0,0,0,0,0,0,0,0,0,0,0,0,0,0,0,0,3.9037,3.9037,0,3.8985,3.8985,3.8984,3.8996,3.8997,3.8998,3.8999,3.8939,3.8936,3.8934,0,0,0,0,0,0,0,0,0,0,0,0,0,3.914,3.9138,3.9037,3.9037,3.9036,3.8986,3.8985,3.8984,3.8996,3.8997,3.8998,3.9,3.894,3.8937,3.8934,0,0,0,0,0,0,0,0,0,0,0,0,0,3.9092,3.9138,3.9037,3.9036,3.9035,3.8986,3.8985,3.8984,3.8996,3.8997,3.8999,3.9,3.8941,3.8937,3.8933,3.888,0,0,3.8922,3.892,0,0,0,0,0,0,0,0,3.9095,3.9089,3.9037,3.9036,3.9035,3.8999,3.8999,3.8949,3.8995,3.9011,3.8999,3.9001,3.8957,3.8952,3.8939,3.8877,3.8874,3.8921,3.8919,3.8917,3.8916,0,0,0,0,0,0,0,3.9098,3.9091,3.9017,3.9036,3.9035,3.9036,3.9031,3.899,3.8976,3.9009,3.901,3.9004,3.8957,3.8943,3.8938,3.8873,3.8921,3.8918,3.8916,3.8914,3.8764,3.8762,0,0,0,0,0,0,3.9103,3.9094,3.9018,3.9015,3.907,3.9033,3.9027,3.9009,3.8976,3.8973,3.9003,3.9005,3.8948,3.8942,3.8935,3.887,3.8917,3.8914,3.8912,3.8766,3.8764,3.8762,0,0,0,0,0,0,3.9105,3.9097,3.902,3.9055,3.9045,3.903,3.9009,3.9007,3.8993,3.8972,3.8969,3.8991,3.8949,3.8941,3.8894,3.8868,3.8912,3.8909,3.8768,3.8765,3.8763,3.8739,0,0,0,0,0,0,3.9108,3.9097,3.9078,3.9054,3.9043,3.8981,3.9007,3.9005,3.8987,3.8989,3.896,3.8956,3.895,3.8899,3.889,3.8864,3.8906,3.877,3.8767,3.8763,3.8742,3.8736,3.873,0,0,0,0,0,3.9112,3.9072,3.9077,3.9068,3.9019,3.898,3.8973,3.8969,3.8985,3.8964,3.8951,3.8957,3.8873,3.8895,3.8884,3.8856,3.8771,3.8767,3.8764,3.8744,3.8737,3.8731,0,0,0,0,0,0,3.909,3.9068,3.9074,3.9025,3.9005,3.8982,3.8956,3.8961,3.8933,3.8936,3.893,3.8923,3.8875,3.8861,3.8885,3.8802,3.8824,3.8818,3.8813,3.8806,3.88,3.8804,3.8903,0,0,0,0,0,3.908,3.9052,3.9034,3.8992,3.8982,3.8971,3.8954,3.8952,3.893,3.892,3.8903,3.8879,3.8847,3.8826,3.8795,3.874,3.8733,3.8716,3.871,3.8706,3.87,3.8669,3.8661,3.8749,3.8749,3.8749,0,0,3.9058,3.9043,3.9025,3.8988,3.8972,3.8941,3.8963,3.8929,3.8906,3.8914,3.8869,3.8856,3.8828,3.8777,3.8754,3.8764,3.8674,3.8701,3.8698,3.8694,3.8664,3.8656,3.8648,3.8747,3.8747,3.8747,0,0,3.9002,3.8988,3.8952,3.8936,3.8913,3.8906,3.8897,3.8874,3.8866,3.8822,3.8827,3.8798,3.8744,3.8724,3.8707,3.8645,3.8649,3.8635,3.8605,3.8575,3.8568,3.8562,3.8538,3.853,3.863,3.8629,3.8629,0,3.8976,3.8933,3.8932,3.8899,3.8882,3.8891,3.8853,3.8837,3.8803,3.879,3.8803,3.8735,3.8717,3.8661,3.8647,3.8633,3.8621,3.8637,3.8569,3.8563,3.8557,3.8535,3.8526,3.8628,3.8628,3.8628,3.8628,0,3.8902,3.8871,3.8845,3.8815,3.8795,3.8759,3.8752,3.8732,3.8733,3.8724,3.8678,3.8657,3.8622,3.8609,3.8609,3.8553,3.856,3.8571,3.8593,3.8547,3.8526,3.8517,3.8626,3.8626,3.8627,3.8627,0,0,3.8828,3.8801,3.8791,3.8778,3.8753,3.8728,3.8692,3.8661,3.8643,3.862,3.8589,3.8543,3.8554,3.8534,3.8532,3.8506,3.8457,3.852,3.8519,3.8508,3.8393,3.8384,3.8374,3.8461,3.8459,3.8458,3.8395,0,3.8769,3.8709,3.8708,3.8652,3.8623,3.8632,3.8601,3.8581,3.8572,3.8545,3.8534,3.8502,3.8519,3.8507,3.8482,3.8468,3.8433,3.8473,3.8429,3.8427,3.8434,3.8363,3.8353,3.8294,3.8387,3.8385,3.8384,0,3.8691,3.8668,3.861,3.859,3.8578,3.855,3.8522,3.8496,3.8473,3.8469,3.8448,3.845,3.8411,3.8436,3.8383,3.8409,3.8392,3.8382,3.838,3.8374,3.8402,3.8353,3.8276,3.8266,3.8371,3.8372,3.8373,0,3.8642,3.8596,3.8556,3.8544,3.852,3.85,3.8489,3.8468,3.845,3.8424,3.8412,3.8381,3.8364,3.834,3.8332,3.8352,3.8278,3.8303,3.8271,3.8272,3.8254,3.8255,3.8171,3.8245,3.8245,3.8246,3.8246,0,3.8574,3.8538,3.8533,3.8508,3.8467,3.8466,3.8425,3.8415,3.8397,3.8368,3.8374,3.8346,3.8339,3.831,3.8304,3.826,3.8252,3.8245,3.8244,3.8244,3.8245,3.8231,3.8234,3.8243,3.8244,3.8244,3.8245,0,3.8511,3.8507,3.8463,3.8445,3.844,3.841,3.8394,3.8368,3.8361,3.8325,3.8316,3.8304,3.827,3.8261,3.8219,3.8215,3.8163,3.8166,3.8171,3.817,3.8139,3.8142,3.8042,3.8028,3.8113,3.8112,3.8112,0,3.8468,3.844,3.842,3.8403,3.8391,3.8363,3.8345,3.8343,3.8324,3.8297,3.8274,3.8242,3.8215,3.816,3.8146,3.8114,3.8115,3.8083,3.811,3.8111,3.8113,3.8114,3.8111,3.8076,3.8075,3.8075,3.8074,0,3.8391,3.839,3.8365,3.834,3.8319,3.8298,3.8277,3.8262,3.8257,3.8235,3.8202,3.8181,3.8141,3.8107,3.8076,3.8062,3.8066,3.8066,3.8057,3.8056,3.8059,3.8056,3.8155,3.8068,3.8068,3.8069,3.8069,3.8069,3.8335,3.8311,3.8294,3.8265,3.8251,3.8232,3.8208,3.8199,3.8172,3.814,3.814,3.8104,3.8082,3.804,3.8025,3.7995,3.8004,3.7991,3.7987,3.7984,3.7981,3.8066,3.7989,3.7989,3.7989,3.7989,3.7989,0,3.8257,3.8247,3.8221,3.8194,3.8172,3.8182,3.816,3.814,3.8109,3.8089,3.8064,3.8025,3.7993,3.7978,3.7946,3.7925,3.7926,3.7916,3.7916,3.7913,3.7974,3.7985,3.7916,3.7916,3.7916,3.7916,3.7916,3.7916,3.8214,3.8174,3.8171,3.8124,3.8113,3.8079,3.8066,3.8048,3.8033,3.799,3.7965,3.7956,3.7938,3.7905,3.7875,3.7871,3.7859,3.7847,3.7844,3.7901,3.7909,3.7916,3.7926,3.7845,3.7845,3.7785,3.7785,3.7784]}]]